Location: Unspecified
(0.0000°N, 0.0000°E)
Time: 10:30:10
(UTC+00:00)

XW-2C - Pass Details

Date: 09 December 2017
Orbit: 510 x 531 km, 97.5° (Epoch: 21 January)

Event Time Altitude Azimuth Distance (km) Brightness Sun altitude
Rises 18:17:33 0° 190° (S) 2,618 ? -5.8°
Reaches altitude 10° 18:19:57 10° 205° (SSW) 1,731 ? -6.3°
Maximum altitude 18:22:57 23° 259° (WSW) 1,116 ? -7.0°
Drops below altitude 10° 18:25:57 10° 313° (NW) 1,731 ? -7.7°
Sets 18:28:20 0° 327° (NNW) 2,617 ? -8.2°
